Terug naar catalogus

O3B MPOWER F8

ActiefCommunicatieMEO
NORAD 62363·PAYLOAD·🇱🇺 Luxembourg

Gelanceerd Dec 17, 2024 vanaf Cape Canaveral Space Force Station

Loading…

Volgende Passages (komende 24 uur)

TLE

VersSource: CelesTrak SupGP

Epoch: Sep 14, 2026, 18:00 UTC

1 62363C 24244B   26257.75000000  .00000000  00000+0  00000+0 0  2575
2 62363   0.0322  36.9523 0005232 126.6690 118.0397  5.00114833    14

Volg O3B MPOWER F8 in realtime met AllMySat

Download on the App Store